Regional Weather Roundup
Issued by NWS

Home | Current Version | Previous Version | Text Only | Print | Product List | Glossary Off
Versions: 1 2 3 4 5 6 7 8 9 10 11 12 13 14 15 16 17 18 19 20 21 22 23 24 25 26 27 28 29 30 31 32 33 34 35 36 37 38 39 40 41 42 43 44 45 46 47 48 49 50

000
ASUS43 KMKX 292300
RWRWI

WISCONSIN REGIONAL WEATHER ROUNDUP
NATIONAL WEATHER SERVICE MILWAUKEE/SULLIVAN WI
600 PM CDT THU SEP 29 2016

NOTE: "FAIR" INDICATES FEW OR NO CLOUDS BELOW 12,000 FEET WITH NO
SIGNIFICANT WEATHER AND/OR OBSTRUCTIONS TO VISIBILITY.

WIZ001-002-006>008-014>016-023>028-300000-
NORTHWEST WISCONSIN

CITY           SKY/WX    TMP DP  RH WIND       PRES   REMARKS
SUPERIOR ARPT  CLEAR     56  51  82 NE12      30.47F
ASHLAND        PTCLDY    57  51  80 E14       30.48S
HAYWARD        CLEAR     60  51  72 NE14      30.44S
SIREN          CLEAR     64  49  58 NE6       30.43S
CUMBERLAND     CLEAR     64  48  55 NE8       30.41F
RICE LAKE      CLEAR     68  50  53 N8        30.41F
CHETEK         NOT AVBL
LADYSMITH      CLEAR     67  52  57 N6        30.42S
EAU CLAIRE     NOT AVBL
MENOMONIE      CLEAR     71  50  47 N7        30.38F HAZE
NEW RICHMOND   CLEAR     67  49  53 N7        30.40F
OSCEOLA        CLEAR     67  50  54 N6        30.43F
$$

WIZ003>005-009-010-017-018-300000-
NORTH CENTRAL WISCONSIN

CITY           SKY/WX    TMP DP  RH WIND       PRES   REMARKS
MANITOWISH WTR NOT AVBL
ARBOR VITAE    CLEAR     62  54  74 N7        30.43S
WOODRUFF       CLEAR     62  54  74 N7        30.43S
RHINELANDER    CLEAR     64  55  72 N7        30.42R
EAGLE RIVER    CLEAR     62  52  69 NE10      30.43R
LAND O LAKES   CLEAR     61  53  75 N9        30.46S
PHILLIPS       CLEAR     65  53  65 NE8       30.41S
TOMAHAWK       CLEAR     66  52  61 N5        30.41R
MEDFORD        CLEAR     66  51  57 NE7       30.38S
MERRILL        PTCLDY    67  52  57 NE6       30.39S
$$

WIZ029-030-035-036-043>047-300000-
CENTRAL WISCONSIN

CITY           SKY/WX    TMP DP  RH WIND       PRES   REMARKS
WAUSAU         CLEAR     68  50  52 NE7       30.36S
MOSINEE        PTCLDY    66  52  59 NE6       30.38R
MARSHFIELD     CLEAR     69  48  47 NE7       30.36S
STEVENS POINT  CLEAR     67  49  51 NE8       30.36S
WAUPACA        CLEAR     71  46  41 NE5       30.34S
WAUTOMA        CLEAR     69  48  47 NE8G16    30.33S
WISC RAPIDS    CLEAR     70  49  47 E7G17     30.36S
CAMP DOUGLAS   NOT AVBL
$$

WIZ011>013-019>022-031-037>040-048>050-300000-
NORTHEAST WISCONSIN

CITY           SKY/WX    TMP DP  RH WIND       PRES   REMARKS
ANTIGO         PTCLDY    65  50  57 CALM      30.39S
SHAWANO        PTCLDY    70  50  48 NE9       30.35S
OCONTO         NOT AVBL
STURGEON BAY   CLEAR     65  55  70 NE13G21   30.35S
GREEN BAY      CLEAR     65  54  67 NE16G26   30.34R
MANITOWOC      NOT AVBL
APPLETON       PTCLDY    66  41  39 NE15G23   30.32S
CLINTONVILLE   CLEAR     70  43  37 E8        30.34S
OSHKOSH        CLEAR     66  50  56 N16       30.31S
$$

WIZ032>034-041-042-053>061-300000-
SOUTHWEST WISCONSIN

CITY           SKY/WX    TMP DP  RH WIND       PRES   REMARKS
LA CROSSE      CLEAR     72  52  49 N7        30.33S
SPARTA         CLEAR     70  52  53 N7        30.34S
VIROQUA        CLEAR     69  49  49 N10       30.33S
BOSCOBEL       CLEAR     73  46  38 NE7       30.30R
PRAIRIE DU CHI CLEAR     72  46  39 N8        30.29S
PLATTEVILLE    CLEAR     70  50  48 NE16      30.29R
$$

WIZ056-057-062-063-064-067-068-300000-
SOUTH CENTRAL WISCONSIN

CITY           SKY/WX    TMP DP  RH WIND       PRES   REMARKS
REEDSBURG      NOT AVBL
BARABOO/DELLS  CLEAR     69  41  36 NE10      30.31R
LONE ROCK      NOT AVBL
MINERAL POINT  CLEAR     70  45  40 NE12G20   30.29R
MADISON        PTCLDY    67  52  58 NE16G23   30.28S
MIDDLETON      PTCLDY    70  51  51 NE17G25   30.29R
WATERTOWN      CLEAR     67  51  56 N15       30.27S
MONROE         PTCLDY    68  50  52 NE15G22   30.26S
JANESVILLE     MOCLDY    66  54  63 NE13      30.27
$$

WIZ051-052-058>065-066-070>072-300000-
SOUTHEAST WISCONSIN

CITY           SKY/WX    TMP DP  RH WIND       PRES   REMARKS
MILWAUKEE      MOCLDY    63  58  83 N16G28    30.27S
WAUKESHA       MOCLDY    63  54  72 NE13G20   30.29R
MILWAUKEE/TIMM CLOUDY    63  54  72 N12G25    30.29R
RACINE         LGT RAIN  60  57  89 N17G23    30.27S
BURLINGTON     MOCLDY    63  53  69 N16       30.26S
KENOSHA        LGT RAIN  61  59  93 NE10      30.26R
FOND DU LAC    CLEAR     66  55  67 NE12      30.31S
SHEBOYGAN      PTCLDY    63  56  78 NE22G30   30.30R
WEST BEND      CLOUDY    70  61  73 NE13G18   30.29R
JUNEAU         CLEAR     67  50  53 N12G21    30.29S
$$

LSZ147-162-300000-
LAKE SUPERIOR

STATION/POSITION TIME  TEMP    WIND        PRES    WAVE
                       AIR SEA DIR/SP/G            HT/PER
                 (UTC) (F)     (DEG/KT/KT) (MB)    (FT/S)
W MID LAKE BUOY  2150   55 55   80/  8/ 10 1032.4F   1/ 5
DEVILS ISLAND    2200   54      60/  9/ 10 1032.8F
SAXON HARBOR     2200   58      40/  9/ 11 1031.5F
$$

LMZ867-665-643>646-300000-
LAKE MICHIGAN

STATION/POSITION TIME  TEMP    WIND        PRES    WAVE
                       AIR SEA DIR/SP/G            HT/PER
                 (UTC) (F)     (DEG/KT/KT) (MB)    (FT/S)
CHAMBERS ISLAND  2200   65      20/  9/ 11 1027.4S
S GREEN BAY BUOY 2200   65 63   40/ 16/ 19 1026.7S
N MID LAKE BUOY  2150   65 66   60/ 16/ 19 1027.5R   3/ 4
NORTHPORT PIER   2200   68      40/ 10/ 14 1027.8R
SISTER BAY       2208   74      70/  8/ 12   N/A
KEWAUNEE LAKESHO 2200   63      20/  8/ 14 1026.4F
SHEBOYGAN LAKESH 2200   61      10/ 22/ 25 1025.3R
PORT WASHINGTON  2200   65      30/ 12/ 21 1025.7S
ATWATER BUOY     2200   57 52   10/ 14/ 17 1024.7R
MILWAUKEE LAKESH 2210   60     360/ 19/ 22   N/A
S MID LAKE BUOY  2150   65 69   70/ 21/ 25 1022.7R   7/ 7
KENOSHA   LAKESH 2200   61      20/ 18/ 23 1024.0R
$$

TC  - TEMPERATURE IN CELSIUS
VSB - VISIBILITY IN STATUTE MILES
WCI - WIND CHILL INDEX
HX  - HEAT INDEX




USA.gov is the U.S. government's official web portal to all federal, state and local government web resources and services.